GSAT0103 (PRN E19)

Last updated on Nov. 17, 2019, 4:20 a.m. UTC

1 38857U 12055A   19319.89133642  .00000086  00000-0  00000+0 0  9996
2 38857  54.9464 167.6899 0001124 255.2394 104.8372  1.70473815 44154
UTC
Height (km)
Latitude
Longitude
Inclination
Orbital Period
UTC large
Height (km)
Speed (km/s)
/
Latitude / Longitude
Inclination (degrees)
Orbital Period (minutes)
Azimuth
Elevation
Range (km)
Doppler Factor
iOS Compass Heading
iOS Angle

Next 30 passes for location: Hong Kong

Rise time Rise Azimuth (degrees) Set time Set Azimuth (degrees) Duration Max altitude (degrees)

No matching passes for this satellites